Time,TemperatureF,DewpointF,PressureIn,WindDirection,WindDirectionDegrees,WindSpeedMPH,WindSpeedGustMPH,Humidity,HourlyPrecipIn,Conditions,Clouds,dailyrainin,SoftwareType,DateUTC
2013-05-23 00:01:00,65.5,61.8,29.93,North,0,0.0,0.0,88,0.00,,,0.00,WUHU21623XXSP,2013-05-23 04:01:00,
2013-05-23 00:06:00,65.5,61.8,29.93,ESE,112,0.0,0.0,88,0.00,,,0.00,WUHU21623XXSP,2013-05-23 04:06:00,
2013-05-23 00:11:00,65.5,61.8,29.92,ESE,112,0.0,0.0,88,0.00,,,0.00,WUHU21623XXSP,2013-05-23 04:11:00,
2013-05-23 00:16:00,65.5,61.8,29.92,SSW,202,0.0,0.0,88,0.00,,,0.00,WUHU21623XXSP,2013-05-23 04:16:00,
2013-05-23 00:21:00,65.5,61.8,29.93,South,180,0.0,0.0,88,0.00,,,0.00,WUHU21623XXSP,2013-05-23 04:21:00,
2013-05-23 00:26:00,65.5,61.8,29.93,South,180,0.0,0.0,88,0.00,,,0.00,WUHU21623XXSP,2013-05-23 04:26:00,
2013-05-23 00:31:00,65.5,61.8,29.93,South,180,0.0,0.0,88,0.00,,,0.00,WUHU21623XXSP,2013-05-23 04:31:00,
2013-05-23 00:36:00,65.5,61.8,29.93,South,180,0.0,0.0,88,0.00,,,0.00,WUHU21623XXSP,2013-05-23 04:36:00,
2013-05-23 00:41:00,65.5,61.8,29.93,ESE,112,0.0,0.0,88,0.00,,,0.00,WUHU21623XXSP,2013-05-23 04:41:00,
2013-05-23 00:46:00,65.5,61.8,29.93,WNW,292,0.0,0.0,88,0.00,,,0.00,WUHU21623XXSP,2013-05-23 04:46:00,
2013-05-23 00:51:00,65.5,61.8,29.93,WNW,292,0.0,0.0,88,0.00,,,0.00,WUHU21623XXSP,2013-05-23 04:51:00,
2013-05-23 00:56:00,65.3,61.7,29.93,West,270,0.0,0.0,88,0.00,,,0.00,WUHU21623XXSP,2013-05-23 04:56:00,
2013-05-23 01:01:00,65.3,61.7,29.93,SSW,202,0.0,0.0,88,0.00,,,0.00,WUHU21623XXSP,2013-05-23 05:01:00,
2013-05-23 01:06:00,65.1,61.5,29.93,South,180,0.0,0.0,88,0.00,,,0.00,WUHU21623XXSP,2013-05-23 05:06:00,
2013-05-23 01:11:00,65.1,61.5,29.93,South,180,0.0,0.0,88,0.00,,,0.00,WUHU21623XXSP,2013-05-23 05:11:00,
2013-05-23 01:16:00,65.1,61.5,29.92,ESE,112,0.0,0.0,88,0.00,,,0.00,WUHU21623XXSP,2013-05-23 05:16:00,
2013-05-23 01:21:00,65.1,61.5,29.94,ESE,112,0.0,0.0,88,0.00,,,0.00,WUHU21623XXSP,2013-05-23 05:21:00,
2013-05-23 01:26:00,65.1,61.5,29.93,ESE,112,0.0,0.0,88,0.00,,,0.00,WUHU21623XXSP,2013-05-23 05:26:00,
2013-05-23 01:31:00,65.3,61.7,29.93,South,180,0.0,0.0,88,0.00,,,0.00,WUHU21623XXSP,2013-05-23 05:31:00,
2013-05-23 01:36:00,65.3,61.7,29.93,ESE,112,0.0,0.0,88,0.00,,,0.00,WUHU21623XXSP,2013-05-23 05:36:00,
2013-05-23 01:41:00,65.3,61.7,29.93,ESE,112,0.0,0.0,88,0.00,,,0.00,WUHU21623XXSP,2013-05-23 05:41:00,
2013-05-23 01:46:00,65.3,61.7,29.93,SSW,202,0.0,0.0,88,0.00,,,0.00,WUHU21623XXSP,2013-05-23 05:46:00,
2013-05-23 01:51:00,65.1,61.5,29.92,ESE,112,0.0,0.0,88,0.00,,,0.00,WUHU21623XXSP,2013-05-23 05:51:00,
2013-05-23 01:56:00,65.1,61.5,29.93,ESE,112,0.0,0.0,88,0.00,,,0.00,WUHU21623XXSP,2013-05-23 05:56:00,
2013-05-23 02:01:00,65.1,61.5,29.93,ESE,112,0.0,0.0,88,0.00,,,0.00,WUHU21623XXSP,2013-05-23 06:01:00,
2013-05-23 02:06:00,64.9,61.3,29.92,ESE,112,0.0,0.0,88,0.00,,,0.00,WUHU21623XXSP,2013-05-23 06:06:00,
2013-05-23 02:11:00,64.8,61.2,29.93,ESE,112,0.0,0.0,88,0.00,,,0.00,WUHU21623XXSP,2013-05-23 06:11:00,
2013-05-23 02:16:00,64.6,61.0,29.92,ESE,112,0.0,0.0,88,0.00,,,0.00,WUHU21623XXSP,2013-05-23 06:16:00,
2013-05-23 02:22:00,64.6,61.0,29.92,ESE,112,0.0,0.0,88,0.00,,,0.00,WUHU21623XXSP,2013-05-23 06:22:00,
2013-05-23 02:27:00,64.6,61.0,29.92,ESE,112,0.0,0.0,88,0.00,,,0.00,WUHU21623XXSP,2013-05-23 06:27:00,
2013-05-23 02:32:00,64.6,61.0,29.92,ESE,112,0.0,0.0,88,0.00,,,0.00,WUHU21623XXSP,2013-05-23 06:32:00,
2013-05-23 02:37:00,64.6,61.0,29.93,ESE,112,0.0,0.0,88,0.00,,,0.00,WUHU21623XXSP,2013-05-23 06:37:00,
2013-05-23 02:42:00,64.2,60.7,29.93,SSW,202,0.0,0.0,88,0.00,,,0.00,WUHU21623XXSP,2013-05-23 06:42:00,
2013-05-23 02:47:00,64.2,60.7,29.93,ESE,112,0.0,0.0,88,0.00,,,0.00,WUHU21623XXSP,2013-05-23 06:47:00,
2013-05-23 02:52:00,64.0,60.5,29.92,ESE,112,0.0,0.0,88,0.00,,,0.00,WUHU21623XXSP,2013-05-23 06:52:00,
2013-05-23 02:57:00,63.7,60.1,29.93,ESE,112,0.0,0.0,88,0.00,,,0.00,WUHU21623XXSP,2013-05-23 06:57:00,
2013-05-23 03:02:00,63.5,59.9,29.93,ESE,112,0.0,0.0,88,0.00,,,0.00,WUHU21623XXSP,2013-05-23 07:02:00,
2013-05-23 03:07:00,63.3,59.8,29.93,South,180,0.0,0.0,88,0.00,,,0.00,WUHU21623XXSP,2013-05-23 07:07:00,
2013-05-23 03:12:00,63.3,59.8,29.93,ESE,112,0.0,0.0,88,0.00,,,0.00,WUHU21623XXSP,2013-05-23 07:12:00,
2013-05-23 03:17:00,63.1,59.6,29.93,ESE,112,0.0,0.0,88,0.00,,,0.00,WUHU21623XXSP,2013-05-23 07:17:00,
2013-05-23 03:22:00,62.8,59.2,29.93,ESE,112,0.0,0.0,88,0.00,,,0.00,WUHU21623XXSP,2013-05-23 07:22:00,
2013-05-23 03:27:00,62.8,59.2,29.93,South,180,0.0,0.0,88,0.00,,,0.00,WUHU21623XXSP,2013-05-23 07:27:00,
2013-05-23 03:32:00,62.6,59.0,29.94,SSW,202,0.0,0.0,88,0.00,,,0.00,WUHU21623XXSP,2013-05-23 07:32:00,
2013-05-23 03:37:00,62.6,59.0,29.94,South,180,0.0,0.0,88,0.00,,,0.00,WUHU21623XXSP,2013-05-23 07:37:00,
2013-05-23 03:42:00,62.4,58.9,29.94,ESE,112,0.0,0.0,88,0.00,,,0.00,WUHU21623XXSP,2013-05-23 07:42:00,
2013-05-23 03:46:00,62.4,58.9,29.94,ESE,112,0.0,0.0,88,0.00,,,0.00,WUHU21623XXSP,2013-05-23 07:46:00,
2013-05-23 03:52:00,62.4,58.9,29.94,ESE,112,0.0,0.0,88,0.00,,,0.00,WUHU21623XXSP,2013-05-23 07:52:00,
2013-05-23 03:57:00,62.2,58.7,29.94,South,180,0.0,0.0,88,0.00,,,0.00,WUHU21623XXSP,2013-05-23 07:57:00,
2013-05-23 04:02:00,61.9,58.3,29.94,ESE,112,0.0,0.0,88,0.00,,,0.00,WUHU21623XXSP,2013-05-23 08:02:00,
2013-05-23 04:07:00,61.9,58.3,29.94,ESE,112,0.0,0.0,88,0.00,,,0.00,WUHU21623XXSP,2013-05-23 08:07:00,
2013-05-23 04:12:00,61.7,58.2,29.94,ESE,112,0.0,0.0,88,0.00,,,0.00,WUHU21623XXSP,2013-05-23 08:12:00,
2013-05-23 04:17:00,61.5,58.0,29.94,ESE,112,0.0,0.0,88,0.00,,,0.00,WUHU21623XXSP,2013-05-23 08:17:00,
2013-05-23 04:22:00,61.5,58.0,29.94,ESE,112,0.0,0.0,88,0.00,,,0.00,WUHU21623XXSP,2013-05-23 08:22:00,
2013-05-23 04:27:00,61.3,57.8,29.94,ESE,112,0.0,0.0,88,0.00,,,0.00,WUHU21623XXSP,2013-05-23 08:27:00,
2013-05-23 04:32:00,61.3,57.8,29.95,ESE,112,0.0,0.0,88,0.00,,,0.00,WUHU21623XXSP,2013-05-23 08:32:00,
2013-05-23 04:37:00,61.3,57.8,29.95,ESE,112,0.0,0.0,88,0.00,,,0.00,WUHU21623XXSP,2013-05-23 08:37:00,
2013-05-23 04:42:00,61.3,57.8,29.95,South,180,0.0,0.0,88,0.00,,,0.00,WUHU21623XXSP,2013-05-23 08:42:00,
2013-05-23 04:47:00,61.2,57.6,29.95,ESE,112,0.0,0.0,88,0.00,,,0.00,WUHU21623XXSP,2013-05-23 08:47:00,
2013-05-23 04:52:00,61.2,57.6,29.95,ESE,112,0.0,0.0,88,0.00,,,0.00,WUHU21623XXSP,2013-05-23 08:52:00,
2013-05-23 04:57:00,61.3,57.8,29.95,ESE,112,0.0,0.0,88,0.00,,,0.00,WUHU21623XXSP,2013-05-23 08:57:00,
2013-05-23 05:02:00,61.5,58.0,29.95,ESE,112,0.0,0.0,88,0.00,,,0.00,WUHU21623XXSP,2013-05-23 09:02:00,
2013-05-23 05:07:00,61.5,58.0,29.96,ESE,112,0.0,0.0,88,0.00,,,0.00,WUHU21623XXSP,2013-05-23 09:07:00,
2013-05-23 05:12:00,61.5,58.0,29.96,ESE,112,0.0,0.0,88,0.00,,,0.00,WUHU21623XXSP,2013-05-23 09:12:00,
2013-05-23 05:17:00,61.7,58.2,29.96,ESE,112,0.0,0.0,88,0.00,,,0.00,WUHU21623XXSP,2013-05-23 09:17:00,
2013-05-23 05:22:00,61.9,58.3,29.96,ESE,112,0.0,0.0,88,0.00,,,0.00,WUHU21623XXSP,2013-05-23 09:22:00,
2013-05-23 05:27:00,62.1,58.5,29.96,ESE,112,0.0,0.0,88,0.00,,,0.00,WUHU21623XXSP,2013-05-23 09:27:00,
2013-05-23 05:32:00,61.9,58.3,29.96,ESE,112,0.0,0.0,88,0.00,,,0.00,WUHU21623XXSP,2013-05-23 09:32:00,
2013-05-23 05:37:00,61.7,58.2,29.96,ESE,112,0.0,0.0,88,0.00,,,0.00,WUHU21623XXSP,2013-05-23 09:37:00,
2013-05-23 05:42:00,61.5,58.0,29.96,ESE,112,0.0,0.0,88,0.00,,,0.00,WUHU21623XXSP,2013-05-23 09:42:00,
2013-05-23 05:47:00,61.5,58.0,29.96,ESE,112,0.0,0.0,88,0.00,,,0.00,WUHU21623XXSP,2013-05-23 09:47:00,
2013-05-23 05:52:00,61.3,57.8,29.96,ESE,112,0.0,0.0,88,0.00,,,0.00,WUHU21623XXSP,2013-05-23 09:52:00,
2013-05-23 05:57:00,61.3,57.8,29.96,ESE,112,0.0,0.0,88,0.00,,,0.00,WUHU21623XXSP,2013-05-23 09:57:00,
2013-05-23 06:02:00,61.2,57.6,29.96,ESE,112,0.0,0.0,88,0.00,,,0.00,WUHU21623XXSP,2013-05-23 10:02:00,
2013-05-23 06:07:00,61.3,57.8,29.97,ESE,112,0.0,0.0,88,0.00,,,0.00,WUHU21623XXSP,2013-05-23 10:07:00,
2013-05-23 06:12:00,61.3,57.8,29.96,ESE,112,0.0,0.0,88,0.00,,,0.00,WUHU21623XXSP,2013-05-23 10:12:00,
2013-05-23 06:17:00,61.5,58.0,29.96,ESE,112,0.0,0.0,88,0.00,,,0.00,WUHU21623XXSP,2013-05-23 10:17:00,
2013-05-23 06:22:00,61.5,58.0,29.96,ESE,112,0.0,0.0,88,0.00,,,0.00,WUHU21623XXSP,2013-05-23 10:22:00,
2013-05-23 06:27:00,61.3,57.8,29.97,ESE,112,0.0,0.0,88,0.00,,,0.00,WUHU21623XXSP,2013-05-23 10:27:00,
2013-05-23 06:32:00,61.3,57.8,29.97,ESE,112,0.0,0.0,88,0.00,,,0.00,WUHU21623XXSP,2013-05-23 10:32:00,
2013-05-23 06:37:00,61.2,57.6,29.97,ESE,112,0.0,0.0,88,0.00,,,0.00,WUHU21623XXSP,2013-05-23 10:37:00,
2013-05-23 06:42:00,61.0,57.4,29.97,ESE,112,0.0,0.0,88,0.00,,,0.00,WUHU21623XXSP,2013-05-23 10:42:00,
2013-05-23 06:47:00,61.0,57.4,29.97,ESE,112,0.0,0.0,88,0.00,,,0.00,WUHU21623XXSP,2013-05-23 10:47:00,
2013-05-23 06:52:00,60.8,57.3,29.97,ESE,112,0.0,0.0,88,0.00,,,0.00,WUHU21623XXSP,2013-05-23 10:52:00,
2013-05-23 06:57:00,60.8,57.3,29.97,ESE,112,0.0,0.0,88,0.00,,,0.00,WUHU21623XXSP,2013-05-23 10:57:00,
2013-05-23 07:03:00,61.0,57.4,29.98,ESE,112,0.0,0.0,88,0.00,,,0.00,WUHU21623XXSP,2013-05-23 11:03:00,
2013-05-23 07:08:00,60.6,57.1,29.97,ESE,112,0.0,0.0,88,0.00,,,0.00,WUHU21623XXSP,2013-05-23 11:08:00,
2013-05-23 07:13:00,61.0,57.4,29.98,ESE,112,0.0,0.0,88,0.00,,,0.00,WUHU21623XXSP,2013-05-23 11:13:00,
2013-05-23 07:18:00,61.0,57.4,29.98,ESE,112,0.0,0.0,88,0.00,,,0.00,WUHU21623XXSP,2013-05-23 11:18:00,
2013-05-23 07:23:00,61.0,57.4,29.98,South,180,0.0,0.0,88,0.00,,,0.00,WUHU21623XXSP,2013-05-23 11:23:00,
2013-05-23 07:28:00,61.3,57.8,29.98,ESE,112,0.0,0.0,88,0.00,,,0.00,WUHU21623XXSP,2013-05-23 11:28:00,
2013-05-23 07:33:00,61.5,58.0,29.98,ESE,112,0.0,0.0,88,0.00,,,0.00,WUHU21623XXSP,2013-05-23 11:33:00,
2013-05-23 07:38:00,61.7,58.2,29.99,ESE,112,0.0,0.0,88,0.00,,,0.00,WUHU21623XXSP,2013-05-23 11:38:00,
2013-05-23 07:43:00,61.9,58.3,29.99,West,270,0.0,0.0,88,0.00,,,0.00,WUHU21623XXSP,2013-05-23 11:43:00,
2013-05-23 07:48:00,62.2,58.7,29.99,ESE,112,0.0,0.0,88,0.00,,,0.00,WUHU21623XXSP,2013-05-23 11:48:00,
2013-05-23 07:53:00,62.4,58.9,29.99,South,180,0.0,0.0,88,0.00,,,0.00,WUHU21623XXSP,2013-05-23 11:53:00,
2013-05-23 07:58:00,62.8,59.2,29.99,SSW,202,0.0,0.0,88,0.00,,,0.00,WUHU21623XXSP,2013-05-23 11:58:00,
2013-05-23 08:03:00,63.0,59.4,29.99,SSW,202,0.0,0.0,88,0.00,,,0.00,WUHU21623XXSP,2013-05-23 12:03:00,
2013-05-23 08:08:00,63.5,59.9,29.99,SSW,202,0.0,0.0,88,0.00,,,0.00,WUHU21623XXSP,2013-05-23 12:08:00,
2013-05-23 08:13:00,64.2,60.7,29.99,West,270,0.0,0.0,88,0.00,,,0.00,WUHU21623XXSP,2013-05-23 12:13:00,
2013-05-23 08:18:00,64.8,60.8,29.99,West,270,0.0,0.0,87,0.00,,,0.00,WUHU21623XXSP,2013-05-23 12:18:00,
2013-05-23 08:23:00,66.4,62.7,29.99,ESE,112,0.0,0.0,88,0.00,,,0.00,WUHU21623XXSP,2013-05-23 12:23:00,
2013-05-23 08:28:00,67.3,63.6,29.99,ESE,112,0.0,0.0,88,0.00,,,0.00,WUHU21623XXSP,2013-05-23 12:28:00,
2013-05-23 08:33:00,68.5,64.5,29.99,ESE,112,0.0,0.0,87,0.00,,,0.00,WUHU21623XXSP,2013-05-23 12:33:00,
2013-05-23 08:38:00,69.1,65.0,29.99,ESE,112,0.0,0.0,87,0.00,,,0.00,WUHU21623XXSP,2013-05-23 12:38:00,
2013-05-23 08:43:00,70.3,66.6,29.99,ESE,112,0.0,0.0,88,0.00,,,0.00,WUHU21623XXSP,2013-05-23 12:43:00,
2013-05-23 08:48:00,70.2,66.1,30.00,ESE,112,0.0,0.0,87,0.00,,,0.00,WUHU21623XXSP,2013-05-23 12:48:00,
2013-05-23 08:53:00,70.2,66.1,29.99,ESE,112,0.0,0.0,87,0.00,,,0.00,WUHU21623XXSP,2013-05-23 12:53:00,
2013-05-23 08:58:00,70.3,65.9,29.99,ESE,112,0.0,0.0,86,0.00,,,0.00,WUHU21623XXSP,2013-05-23 12:58:00,
2013-05-23 09:03:00,70.3,65.9,29.99,ESE,112,0.0,0.0,86,0.00,,,0.00,WUHU21623XXSP,2013-05-23 13:03:00,
2013-05-23 09:08:00,71.2,66.5,29.99,ESE,112,0.0,0.0,85,0.00,,,0.00,WUHU21623XXSP,2013-05-23 13:08:00,
2013-05-23 09:13:00,72.3,67.6,30.00,ESE,112,0.0,0.0,85,0.00,,,0.00,WUHU21623XXSP,2013-05-23 13:13:00,
2013-05-23 09:18:00,72.3,67.2,29.99,ESE,112,0.0,0.0,84,0.00,,,0.00,WUHU21623XXSP,2013-05-23 13:18:00,
2013-05-23 09:23:00,72.0,66.2,29.99,ESE,112,0.0,0.0,82,0.00,,,0.00,WUHU21623XXSP,2013-05-23 13:23:00,
2013-05-23 09:28:00,72.7,66.9,29.99,ESE,112,0.0,0.0,82,0.00,,,0.00,WUHU21623XXSP,2013-05-23 13:28:00,
2013-05-23 09:33:00,72.3,66.5,29.99,ESE,112,0.0,0.0,82,0.00,,,0.00,WUHU21623XXSP,2013-05-23 13:33:00,
2013-05-23 09:38:00,72.3,66.2,29.99,ESE,112,0.0,0.0,81,0.00,,,0.00,WUHU21623XXSP,2013-05-23 13:38:00,
2013-05-23 09:43:00,73.2,66.7,29.99,ESE,112,0.0,0.0,80,0.00,,,0.00,WUHU21623XXSP,2013-05-23 13:43:00,
2013-05-23 09:48:00,74.1,67.2,29.99,ESE,112,0.0,0.0,79,0.00,,,0.00,WUHU21623XXSP,2013-05-23 13:48:00,
2013-05-23 09:53:00,75.0,67.7,29.99,ESE,112,0.0,0.0,78,0.00,,,0.00,WUHU21623XXSP,2013-05-23 13:53:00,
2013-05-23 09:58:00,75.7,67.6,29.99,ESE,112,0.0,0.0,76,0.00,,,0.00,WUHU21623XXSP,2013-05-23 13:58:00,
2013-05-23 10:03:00,76.1,68.0,29.99,ESE,112,0.0,0.0,76,0.00,,,0.00,WUHU21623XXSP,2013-05-23 14:03:00,
2013-05-23 10:08:00,75.9,67.8,29.99,ESE,112,0.0,0.0,76,0.00,,,0.00,WUHU21623XXSP,2013-05-23 14:08:00,
2013-05-23 10:13:00,75.7,67.6,29.99,ESE,112,0.0,0.0,76,0.00,,,0.00,WUHU21623XXSP,2013-05-23 14:13:00,
2013-05-23 10:18:00,75.7,67.2,29.99,ESE,112,0.0,0.0,75,0.00,,,0.00,WUHU21623XXSP,2013-05-23 14:18:00,
2013-05-23 10:23:00,76.8,69.0,29.99,ESE,112,0.0,0.0,77,0.00,,,0.00,WUHU21623XXSP,2013-05-23 14:23:00,
2013-05-23 10:28:00,77.7,68.7,29.99,ESE,112,0.0,0.0,74,0.00,,,0.00,WUHU21623XXSP,2013-05-23 14:28:00,
2013-05-23 10:33:00,78.4,69.0,29.99,ESE,112,0.0,0.0,73,0.00,,,0.00,WUHU21623XXSP,2013-05-23 14:33:00,
2013-05-23 10:38:00,78.4,69.0,29.99,ESE,112,0.0,0.0,73,0.00,,,0.00,WUHU21623XXSP,2013-05-23 14:38:00,
2013-05-23 10:43:00,78.6,68.4,29.99,East,90,0.0,0.0,71,0.00,,,0.00,WUHU21623XXSP,2013-05-23 14:43:00,
2013-05-23 10:48:00,79.0,68.8,29.99,ESE,112,0.0,0.0,71,0.00,,,0.00,WUHU21623XXSP,2013-05-23 14:48:00,
2013-05-23 10:53:00,78.6,67.1,29.98,ESE,112,0.0,0.0,68,0.00,,,0.00,WUHU21623XXSP,2013-05-23 14:53:00,
2013-05-23 10:58:00,78.6,67.1,29.99,East,90,0.0,0.0,68,0.00,,,0.00,WUHU21623XXSP,2013-05-23 14:58:00,
2013-05-23 11:03:00,79.3,67.4,29.98,ESE,112,0.0,0.0,66,0.00,,,0.00,WUHU21623XXSP,2013-05-23 15:03:00,
2013-05-23 11:08:00,79.3,67.0,29.98,ESE,112,0.0,0.0,66,0.00,,,0.00,WUHU21623XXSP,2013-05-23 15:08:00,
2013-05-23 11:13:00,79.3,67.8,29.98,ESE,112,0.0,0.0,68,0.00,,,0.00,WUHU21623XXSP,2013-05-23 15:13:00,
2013-05-23 11:18:00,79.9,67.9,29.98,ESE,112,0.0,0.0,67,0.00,,,0.00,WUHU21623XXSP,2013-05-23 15:18:00,
2013-05-23 11:23:00,79.7,67.3,29.98,ESE,112,0.0,0.0,66,0.00,,,0.00,WUHU21623XXSP,2013-05-23 15:23:00,
2013-05-23 11:28:00,79.2,66.8,29.97,ESE,112,0.0,0.0,66,0.00,,,0.00,WUHU21623XXSP,2013-05-23 15:28:00,
2013-05-23 11:33:00,78.4,66.1,29.97,ESE,112,0.0,0.0,66,0.00,,,0.00,WUHU21623XXSP,2013-05-23 15:33:00,
2013-05-23 11:38:00,79.2,67.7,29.97,ESE,112,0.0,0.0,68,0.00,,,0.00,WUHU21623XXSP,2013-05-23 15:38:00,
2013-05-23 11:43:00,80.4,68.0,29.97,ESE,112,0.0,0.0,66,0.00,,,0.00,WUHU21623XXSP,2013-05-23 15:43:00,
2013-05-23 11:48:00,80.8,67.4,29.97,ESE,112,0.0,0.0,64,0.00,,,0.00,WUHU21623XXSP,2013-05-23 15:48:00,
2013-05-23 11:53:00,79.7,67.3,29.97,ESE,112,0.0,0.0,66,0.00,,,0.00,WUHU21623XXSP,2013-05-23 15:53:00,
2013-05-23 11:58:00,80.4,68.5,29.97,ESE,112,0.0,0.0,67,0.00,,,0.00,WUHU21623XXSP,2013-05-23 15:58:00,
2013-05-23 12:03:00,81.1,67.8,29.96,West,270,0.0,0.0,64,0.00,,,0.00,WUHU21623XXSP,2013-05-23 16:03:00,
2013-05-23 12:08:00,78.6,65.8,29.97,SSW,202,0.0,0.0,65,0.00,,,0.00,WUHU21623XXSP,2013-05-23 16:08:00,
2013-05-23 12:13:00,78.6,65.4,29.97,SSW,202,0.0,0.0,64,0.00,,,0.00,WUHU21623XXSP,2013-05-23 16:13:00,
2013-05-23 12:18:00,79.5,67.6,29.97,ESE,112,0.0,0.0,67,0.00,,,0.00,WUHU21623XXSP,2013-05-23 16:18:00,
2013-05-23 12:23:00,80.8,67.9,29.96,ESE,112,0.0,0.0,65,0.00,,,0.00,WUHU21623XXSP,2013-05-23 16:23:00,
2013-05-23 12:28:00,82.0,68.1,29.96,WNW,292,0.0,0.0,63,0.00,,,0.00,WUHU21623XXSP,2013-05-23 16:28:00,
2013-05-23 12:33:00,79.9,65.7,29.96,WNW,292,0.0,0.0,62,0.00,,,0.00,WUHU21623XXSP,2013-05-23 16:33:00,
2013-05-23 12:38:00,78.6,65.4,29.96,South,180,0.0,0.0,64,0.00,,,0.00,WUHU21623XXSP,2013-05-23 16:38:00,
2013-05-23 12:43:00,79.2,66.4,29.96,WNW,292,0.0,0.0,65,0.00,,,0.00,WUHU21623XXSP,2013-05-23 16:43:00,
2013-05-23 12:48:00,81.5,68.1,29.95,West,270,0.0,0.0,64,0.00,,,0.00,WUHU21623XXSP,2013-05-23 16:48:00,
2013-05-23 12:53:00,82.0,67.7,29.95,West,270,0.0,0.0,62,0.00,,,0.00,WUHU21623XXSP,2013-05-23 16:53:00,
2013-05-23 12:58:00,81.0,66.7,29.95,WNW,292,0.0,0.0,62,0.00,,,0.00,WUHU21623XXSP,2013-05-23 16:58:00,
2013-05-23 13:03:00,81.1,66.4,29.95,North,0,0.0,0.0,61,0.00,,,0.00,WUHU21623XXSP,2013-05-23 17:03:00,
2013-05-23 13:08:00,80.4,66.2,29.94,WNW,292,0.0,0.0,62,0.00,,,0.00,WUHU21623XXSP,2013-05-23 17:08:00,
2013-05-23 13:13:00,80.2,66.9,29.95,SSW,202,0.0,0.0,64,0.00,,,0.00,WUHU21623XXSP,2013-05-23 17:13:00,
2013-05-23 13:18:00,79.5,65.8,29.94,WNW,292,0.0,0.0,63,0.00,,,0.00,WUHU21623XXSP,2013-05-23 17:18:00,
2013-05-23 13:23:00,78.6,66.3,29.95,North,0,0.0,0.0,66,0.00,,,0.00,WUHU21623XXSP,2013-05-23 17:23:00,
2013-05-23 13:28:00,78.4,65.7,29.95,WNW,292,0.0,0.0,65,0.00,,,0.00,WUHU21623XXSP,2013-05-23 17:28:00,
2013-05-23 13:33:00,79.0,66.2,29.95,South,180,0.0,0.0,65,0.00,,,0.00,WUHU21623XXSP,2013-05-23 17:33:00,
2013-05-23 13:38:00,80.4,66.7,29.94,WNW,292,0.0,0.0,63,0.00,,,0.00,WUHU21623XXSP,2013-05-23 17:38:00,
2013-05-23 13:43:00,82.2,68.7,29.94,WNW,292,0.0,0.0,64,0.00,,,0.00,WUHU21623XXSP,2013-05-23 17:43:00,
2013-05-23 13:48:00,82.2,66.9,29.95,WNW,292,0.0,0.0,60,0.00,,,0.00,WUHU21623XXSP,2013-05-23 17:48:00,
2013-05-23 13:53:00,82.6,66.8,29.94,WNW,292,0.0,0.0,59,0.00,,,0.00,WUHU21623XXSP,2013-05-23 17:53:00,
2013-05-23 13:58:00,82.0,65.2,29.94,WNW,292,0.0,0.0,57,0.00,,,0.00,WUHU21623XXSP,2013-05-23 17:58:00,
2013-05-23 14:03:00,83.1,66.3,29.94,WNW,292,0.0,0.0,57,0.00,,,0.00,WUHU21623XXSP,2013-05-23 18:03:00,
2013-05-23 14:08:00,83.1,65.7,29.94,NNE,22,0.0,0.0,56,0.00,,,0.00,WUHU21623XXSP,2013-05-23 18:08:00,
2013-05-23 14:13:00,83.3,65.9,29.94,North,0,0.0,0.0,56,0.00,,,0.00,WUHU21623XXSP,2013-05-23 18:13:00,
2013-05-23 14:18:00,82.6,64.7,29.94,WNW,292,0.0,0.0,55,0.00,,,0.00,WUHU21623XXSP,2013-05-23 18:18:00,
2013-05-23 14:23:00,82.0,64.7,29.94,West,270,0.0,0.0,56,0.00,,,0.00,WUHU21623XXSP,2013-05-23 18:23:00,
2013-05-23 14:28:00,80.8,65.6,29.95,WNW,292,0.0,0.0,60,0.00,,,0.00,WUHU21623XXSP,2013-05-23 18:28:00,
2013-05-23 14:33:00,82.0,65.7,29.95,West,270,0.0,0.0,58,0.00,,,0.00,WUHU21623XXSP,2013-05-23 18:33:00,
2013-05-23 14:38:00,81.7,63.8,29.95,West,270,0.0,0.0,55,0.00,,,0.00,WUHU21623XXSP,2013-05-23 18:38:00,
2013-05-23 14:43:00,81.7,63.3,29.94,North,0,0.0,0.0,54,0.00,,,0.00,WUHU21623XXSP,2013-05-23 18:43:00,
2013-05-23 14:48:00,82.2,64.3,29.95,WNW,292,0.0,0.0,55,0.00,,,0.00,WUHU21623XXSP,2013-05-23 18:48:00,
2013-05-23 14:53:00,81.7,63.8,29.95,North,0,0.0,0.0,55,0.00,,,0.00,WUHU21623XXSP,2013-05-23 18:53:00,
2013-05-23 14:58:00,80.8,64.1,29.95,WNW,292,0.0,0.0,57,0.00,,,0.00,WUHU21623XXSP,2013-05-23 18:58:00,
2013-05-23 15:03:00,80.6,63.4,29.95,WNW,292,0.0,0.0,56,0.00,,,0.00,WUHU21623XXSP,2013-05-23 19:03:00,
2013-05-23 15:08:00,79.9,63.3,29.95,WNW,292,0.0,0.0,57,0.00,,,0.00,WUHU21623XXSP,2013-05-23 19:08:00,
2013-05-23 15:13:00,78.4,63.0,29.95,NNE,22,0.0,0.0,59,0.00,,,0.00,WUHU21623XXSP,2013-05-23 19:13:00,
2013-05-23 15:18:00,77.5,61.6,29.95,North,0,0.0,0.0,58,0.00,,,0.00,WUHU21623XXSP,2013-05-23 19:18:00,
2013-05-23 15:23:00,79.3,63.3,29.95,West,270,0.0,0.0,58,0.00,,,0.00,WUHU21623XXSP,2013-05-23 19:23:00,
2013-05-23 15:28:00,79.9,63.3,29.95,West,270,0.0,0.0,57,0.00,,,0.00,WUHU21623XXSP,2013-05-23 19:28:00,
2013-05-23 15:33:00,80.6,62.9,29.95,West,270,0.0,0.0,55,0.00,,,0.00,WUHU21623XXSP,2013-05-23 19:33:00,
2013-05-23 15:38:00,81.0,63.7,29.95,WNW,292,0.0,0.0,56,0.00,,,0.00,WUHU21623XXSP,2013-05-23 19:38:00,
2013-05-23 15:43:00,80.4,62.7,29.95,East,90,0.0,0.0,55,0.00,,,0.00,WUHU21623XXSP,2013-05-23 19:43:00,
2013-05-23 15:48:00,79.5,62.4,29.95,North,0,0.0,0.0,56,0.00,,,0.00,WUHU21623XXSP,2013-05-23 19:48:00,
2013-05-23 15:53:00,79.5,62.4,29.95,WNW,292,0.0,0.0,56,0.00,,,0.00,WUHU21623XXSP,2013-05-23 19:53:00,
2013-05-23 15:58:00,79.0,62.5,29.95,WNW,292,0.0,0.0,57,0.00,,,0.00,WUHU21623XXSP,2013-05-23 19:58:00,
2013-05-23 16:03:00,78.3,61.3,29.94,WNW,292,0.0,0.0,56,0.00,,,0.00,WUHU21623XXSP,2013-05-23 20:03:00,
2013-05-23 16:08:00,77.2,61.7,29.94,West,270,0.0,0.0,59,0.00,,,0.00,WUHU21623XXSP,2013-05-23 20:08:00,
2013-05-23 16:13:00,76.6,61.2,29.94,West,270,0.0,0.0,59,0.00,,,0.00,WUHU21623XXSP,2013-05-23 20:13:00,
2013-05-23 16:18:00,76.8,61.9,29.94,South,180,0.0,0.0,60,0.00,,,0.00,WUHU21623XXSP,2013-05-23 20:18:00,
2013-05-23 16:23:00,78.1,63.1,29.94,West,270,0.0,0.0,60,0.00,,,0.00,WUHU21623XXSP,2013-05-23 20:23:00,
2013-05-23 16:28:00,78.4,63.0,29.94,WNW,292,0.0,0.0,59,0.00,,,0.00,WUHU21623XXSP,2013-05-23 20:28:00,
2013-05-23 16:33:00,78.4,62.5,29.94,WNW,292,0.0,0.0,58,0.00,,,0.00,WUHU21623XXSP,2013-05-23 20:33:00,
2013-05-23 16:38:00,78.1,60.6,29.94,WNW,292,0.0,0.0,55,0.00,,,0.00,WUHU21623XXSP,2013-05-23 20:38:00,
2013-05-23 16:43:00,78.1,61.1,29.94,WNW,292,0.0,0.0,56,0.00,,,0.00,WUHU21623XXSP,2013-05-23 20:43:00,
2013-05-23 16:48:00,78.1,61.6,29.94,WNW,292,0.0,0.0,57,0.00,,,0.00,WUHU21623XXSP,2013-05-23 20:48:00,
2013-05-23 16:53:00,78.1,61.1,29.94,North,0,0.0,0.0,56,0.00,,,0.00,WUHU21623XXSP,2013-05-23 20:53:00,
2013-05-23 16:58:00,78.1,61.1,29.95,North,0,0.0,0.0,56,0.00,,,0.00,WUHU21623XXSP,2013-05-23 20:58:00,
2013-05-23 17:03:00,77.9,60.9,29.95,WNW,292,0.0,0.0,56,0.00,,,0.00,WUHU21623XXSP,2013-05-23 21:03:00,
2013-05-23 17:08:00,77.9,60.9,29.95,WNW,292,0.0,0.0,56,0.00,,,0.00,WUHU21623XXSP,2013-05-23 21:08:00,
2013-05-23 17:13:00,77.7,60.2,29.95,West,270,0.0,0.0,55,0.00,,,0.00,WUHU21623XXSP,2013-05-23 21:13:00,
2013-05-23 17:18:00,76.3,59.9,29.95,WNW,292,0.0,0.0,57,0.00,,,0.00,WUHU21623XXSP,2013-05-23 21:18:00,
2013-05-23 17:23:00,75.9,59.1,29.96,WNW,292,0.0,0.0,56,0.00,,,0.00,WUHU21623XXSP,2013-05-23 21:23:00,
2013-05-23 17:29:00,75.4,60.1,29.95,East,90,0.0,0.0,59,0.00,,,0.00,WUHU21623XXSP,2013-05-23 21:29:00,
2013-05-23 17:34:00,75.6,60.8,29.96,WNW,292,0.0,0.0,60,0.00,,,0.00,WUHU21623XXSP,2013-05-23 21:34:00,
2013-05-23 17:39:00,75.4,59.1,29.96,WNW,292,0.0,0.0,57,0.00,,,0.00,WUHU21623XXSP,2013-05-23 21:39:00,
2013-05-23 17:44:00,75.2,58.4,29.96,WNW,292,0.0,0.0,56,0.00,,,0.00,WUHU21623XXSP,2013-05-23 21:44:00,
2013-05-23 17:49:00,75.0,59.3,29.96,North,0,0.0,0.0,58,0.00,,,0.00,WUHU21623XXSP,2013-05-23 21:49:00,
2013-05-23 17:54:00,74.5,59.2,29.96,WNW,292,0.0,0.0,59,0.00,,,0.00,WUHU21623XXSP,2013-05-23 21:54:00,
2013-05-23 17:59:00,74.1,59.8,29.96,WNW,292,0.0,0.0,61,0.00,,,0.00,WUHU21623XXSP,2013-05-23 21:59:00,
2013-05-23 18:04:00,73.9,59.6,29.97,East,90,0.0,0.0,61,0.00,,,0.00,WUHU21623XXSP,2013-05-23 22:04:00,
2013-05-23 18:09:00,73.9,59.6,29.97,East,90,0.0,0.0,61,0.00,,,0.00,WUHU21623XXSP,2013-05-23 22:09:00,
2013-05-23 18:14:00,74.1,59.8,29.97,ESE,112,0.0,0.0,61,0.00,,,0.00,WUHU21623XXSP,2013-05-23 22:14:00,
2013-05-23 18:19:00,73.9,59.6,29.98,East,90,0.0,0.0,61,0.00,,,0.00,WUHU21623XXSP,2013-05-23 22:19:00,
2013-05-23 18:24:00,73.6,59.3,29.98,East,90,0.0,0.0,61,0.00,,,0.00,WUHU21623XXSP,2013-05-23 22:24:00,
2013-05-23 18:29:00,72.9,58.6,29.98,East,90,0.0,0.0,61,0.00,,,0.00,WUHU21623XXSP,2013-05-23 22:29:00,
2013-05-23 18:34:00,72.7,58.0,29.98,East,90,0.0,0.0,60,0.00,,,0.00,WUHU21623XXSP,2013-05-23 22:34:00,
2013-05-23 18:39:00,72.5,57.8,29.98,East,90,0.0,0.0,60,0.00,,,0.00,WUHU21623XXSP,2013-05-23 22:39:00,
2013-05-23 18:44:00,72.3,57.7,29.98,East,90,0.0,0.0,60,0.00,,,0.00,WUHU21623XXSP,2013-05-23 22:44:00,
2013-05-23 18:49:00,72.3,58.1,29.98,ESE,112,0.0,0.0,61,0.00,,,0.00,WUHU21623XXSP,2013-05-23 22:49:00,
2013-05-23 18:54:00,72.3,58.1,29.98,East,90,0.0,0.0,61,0.00,,,0.00,WUHU21623XXSP,2013-05-23 22:54:00,
2013-05-23 18:59:00,72.3,57.2,29.98,ESE,112,0.0,0.0,59,0.00,,,0.00,WUHU21623XXSP,2013-05-23 22:59:00,
2013-05-23 19:04:00,72.3,57.7,29.99,East,90,0.0,0.0,60,0.00,,,0.00,WUHU21623XXSP,2013-05-23 23:04:00,
2013-05-23 19:09:00,72.1,57.5,29.99,WNW,292,0.0,0.0,60,0.00,,,0.00,WUHU21623XXSP,2013-05-23 23:09:00,
2013-05-23 19:14:00,72.1,58.4,29.99,West,270,0.0,0.0,62,0.00,,,0.00,WUHU21623XXSP,2013-05-23 23:14:00,
2013-05-23 19:19:00,72.3,57.7,29.99,West,270,0.0,0.0,60,0.00,,,0.00,WUHU21623XXSP,2013-05-23 23:19:00,
2013-05-23 19:24:00,72.1,57.9,29.99,North,0,0.0,0.0,61,0.00,,,0.00,WUHU21623XXSP,2013-05-23 23:24:00,
2013-05-23 19:29:00,71.6,57.3,29.99,North,0,0.0,0.0,61,0.00,,,0.00,WUHU21623XXSP,2013-05-23 23:29:00,
2013-05-23 19:34:00,70.9,57.2,29.99,WNW,292,0.0,0.0,62,0.00,,,0.00,WUHU21623XXSP,2013-05-23 23:34:00,
2013-05-23 19:39:00,70.5,56.9,29.99,WNW,292,0.0,0.0,62,0.00,,,0.00,WUHU21623XXSP,2013-05-23 23:39:00,
2013-05-23 19:44:00,70.5,56.9,29.99,WNW,292,0.0,0.0,62,0.00,,,0.00,WUHU21623XXSP,2013-05-23 23:44:00,
2013-05-23 19:49:00,70.5,56.9,29.99,WNW,292,0.0,0.0,62,0.00,,,0.00,WUHU21623XXSP,2013-05-23 23:49:00,
2013-05-23 19:54:00,70.5,57.7,29.99,WNW,292,0.0,0.0,64,0.00,,,0.00,WUHU21623XXSP,2013-05-23 23:54:00,
2013-05-23 19:59:00,70.3,57.6,29.99,West,270,0.0,0.0,64,0.00,,,0.00,WUHU21623XXSP,2013-05-23 23:59:00,
2013-05-23 20:04:00,70.0,57.6,29.99,North,0,0.0,0.0,65,0.00,,,0.00,WUHU21623XXSP,2013-05-24 00:04:00,
2013-05-23 20:09:00,69.6,57.7,29.99,WNW,292,0.0,0.0,66,0.00,,,0.00,WUHU21623XXSP,2013-05-24 00:09:00,
2013-05-23 20:14:00,69.4,57.1,29.99,WNW,292,0.0,0.0,65,0.00,,,0.00,WUHU21623XXSP,2013-05-24 00:14:00,
2013-05-23 20:19:00,69.4,57.1,30.00,North,0,0.0,0.0,65,0.00,,,0.00,WUHU21623XXSP,2013-05-24 00:19:00,
2013-05-23 20:24:00,69.3,56.9,30.00,WNW,292,0.0,0.0,65,0.00,,,0.00,WUHU21623XXSP,2013-05-24 00:24:00,
2013-05-23 20:29:00,69.3,56.5,30.00,North,0,0.0,0.0,64,0.00,,,0.00,WUHU21623XXSP,2013-05-24 00:29:00,
2013-05-23 20:34:00,69.3,56.5,30.00,North,0,0.0,0.0,64,0.00,,,0.00,WUHU21623XXSP,2013-05-24 00:34:00,
2013-05-23 20:39:00,69.4,57.1,30.00,North,0,0.0,0.0,65,0.00,,,0.00,WUHU21623XXSP,2013-05-24 00:39:00,
2013-05-23 20:44:00,69.3,56.9,30.00,North,0,0.0,0.0,65,0.00,,,0.00,WUHU21623XXSP,2013-05-24 00:44:00,
2013-05-23 20:49:00,69.1,56.8,30.01,North,0,0.0,0.0,65,0.00,,,0.00,WUHU21623XXSP,2013-05-24 00:49:00,
2013-05-23 20:54:00,69.1,56.8,30.00,NNE,22,0.0,0.0,65,0.00,,,0.00,WUHU21623XXSP,2013-05-24 00:54:00,
2013-05-23 20:59:00,68.9,56.6,30.01,WNW,292,0.0,0.0,65,0.00,,,0.00,WUHU21623XXSP,2013-05-24 00:59:00,
2013-05-23 21:04:00,68.7,56.4,30.01,North,0,0.0,0.0,65,0.00,,,0.00,WUHU21623XXSP,2013-05-24 01:04:00,
2013-05-23 21:09:00,68.5,56.3,30.01,North,0,0.0,0.0,65,0.00,,,0.00,WUHU21623XXSP,2013-05-24 01:09:00,
2013-05-23 21:14:00,68.2,56.4,30.02,WNW,292,0.0,0.0,66,0.00,,,0.00,WUHU21623XXSP,2013-05-24 01:14:00,
2013-05-23 21:19:00,68.2,56.4,30.02,North,0,0.0,0.0,66,0.00,,,0.00,WUHU21623XXSP,2013-05-24 01:19:00,
2013-05-23 21:24:00,68.4,56.5,30.02,WNW,292,0.0,0.0,66,0.00,,,0.00,WUHU21623XXSP,2013-05-24 01:24:00,
2013-05-23 21:29:00,68.2,56.4,30.02,WNW,292,0.0,0.0,66,0.00,,,0.00,WUHU21623XXSP,2013-05-24 01:29:00,
2013-05-23 21:34:00,68.2,56.4,30.02,WNW,292,0.0,0.0,66,0.00,,,0.00,WUHU21623XXSP,2013-05-24 01:34:00,
2013-05-23 21:39:00,68.2,56.8,30.02,WNW,292,0.0,0.0,67,0.00,,,0.00,WUHU21623XXSP,2013-05-24 01:39:00,
2013-05-23 21:44:00,68.2,56.8,30.02,WNW,292,0.0,0.0,67,0.00,,,0.00,WUHU21623XXSP,2013-05-24 01:44:00,
2013-05-23 21:49:00,68.0,56.6,30.02,North,0,0.0,0.0,67,0.00,,,0.00,WUHU21623XXSP,2013-05-24 01:49:00,
2013-05-23 21:54:00,68.2,56.8,30.02,North,0,0.0,0.0,67,0.00,,,0.00,WUHU21623XXSP,2013-05-24 01:54:00,
2013-05-23 21:59:00,68.2,56.8,30.02,WNW,292,0.0,0.0,67,0.00,,,0.00,WUHU21623XXSP,2013-05-24 01:59:00,
2013-05-23 22:04:00,68.0,56.6,30.02,WNW,292,0.0,0.0,67,0.00,,,0.00,WUHU21623XXSP,2013-05-24 02:04:00,
2013-05-23 22:09:00,67.8,56.9,30.03,WNW,292,0.0,0.0,68,0.00,,,0.00,WUHU21623XXSP,2013-05-24 02:09:00,
2013-05-23 22:14:00,67.8,56.9,30.03,North,0,0.0,0.0,68,0.00,,,0.00,WUHU21623XXSP,2013-05-24 02:14:00,
2013-05-23 22:19:00,67.3,56.3,30.03,North,0,0.0,0.0,68,0.00,,,0.00,WUHU21623XXSP,2013-05-24 02:19:00,
2013-05-23 22:24:00,66.9,56.0,30.03,WNW,292,0.0,0.0,68,0.00,,,0.00,WUHU21623XXSP,2013-05-24 02:24:00,
2013-05-23 22:29:00,66.9,56.0,30.04,WNW,292,0.0,0.0,68,0.00,,,0.00,WUHU21623XXSP,2013-05-24 02:29:00,
2013-05-23 22:34:00,66.7,56.2,30.04,North,0,0.0,0.0,69,0.00,,,0.00,WUHU21623XXSP,2013-05-24 02:34:00,
2013-05-23 22:39:00,66.7,56.2,30.04,SSW,202,0.0,0.0,69,0.00,,,0.00,WUHU21623XXSP,2013-05-24 02:39:00,
2013-05-23 22:44:00,66.7,56.2,30.04,WNW,292,0.0,0.0,69,0.00,,,0.00,WUHU21623XXSP,2013-05-24 02:44:00,
2013-05-23 22:49:00,66.7,56.7,30.04,WNW,292,0.0,0.0,70,0.00,,,0.00,WUHU21623XXSP,2013-05-24 02:49:00,
2013-05-23 22:54:00,66.6,56.5,30.04,WNW,292,0.0,0.0,70,0.00,,,0.00,WUHU21623XXSP,2013-05-24 02:54:00,
2013-05-23 22:59:00,66.4,56.7,30.04,North,0,0.0,0.0,71,0.00,,,0.00,WUHU21623XXSP,2013-05-24 02:59:00,
2013-05-23 23:04:00,66.2,56.5,30.04,WNW,292,0.0,0.0,71,0.00,,,0.00,WUHU21623XXSP,2013-05-24 03:04:00,
2013-05-23 23:09:00,66.0,56.3,30.04,WNW,292,0.0,0.0,71,0.00,,,0.00,WUHU21623XXSP,2013-05-24 03:09:00,
2013-05-23 23:14:00,66.0,56.3,30.04,North,0,0.0,0.0,71,0.00,,,0.00,WUHU21623XXSP,2013-05-24 03:14:00,
2013-05-23 23:19:00,65.8,56.2,30.04,WNW,292,0.0,0.0,71,0.00,,,0.00,WUHU21623XXSP,2013-05-24 03:19:00,
2013-05-23 23:24:00,65.5,55.8,30.04,WNW,292,0.0,0.0,71,0.00,,,0.00,WUHU21623XXSP,2013-05-24 03:24:00,
2013-05-23 23:29:00,65.5,56.2,30.04,North,0,0.0,0.0,72,0.00,,,0.00,WUHU21623XXSP,2013-05-24 03:29:00,
2013-05-23 23:34:00,65.3,56.0,30.04,WNW,292,0.0,0.0,72,0.00,,,0.00,WUHU21623XXSP,2013-05-24 03:34:00,
2013-05-23 23:39:00,65.1,55.9,30.04,WNW,292,0.0,0.0,72,0.00,,,0.00,WUHU21623XXSP,2013-05-24 03:39:00,
2013-05-23 23:44:00,65.3,56.0,30.05,WNW,292,0.0,0.0,72,0.00,,,0.00,WUHU21623XXSP,2013-05-24 03:44:00,
2013-05-23 23:49:00,65.3,55.7,30.04,WNW,292,0.0,0.0,71,0.00,,,0.00,WUHU21623XXSP,2013-05-24 03:49:00,
2013-05-23 23:54:00,65.1,55.5,30.04,WNW,292,0.0,0.0,71,0.00,,,0.00,WUHU21623XXSP,2013-05-24 03:54:00,